Time,TemperatureF,DewpointF,PressureIn,WindDirection,WindDirectionDegrees,WindSpeedMPH,WindSpeedGustMPH,Humidity,HourlyPrecipIn,Conditions,Clouds,dailyrainin,SolarRadiationWatts/m^2,SoftwareType,DateUTC
2013-09-02 00:00:00,53.0,50.0,-100.00,SSE,157,4.0,-999.0,89,-99.99,,,-99.99,0.000000,,2013-09-02 04:00:00,
2013-09-02 00:44:00,53.0,50.0,-100.00,SSE,157,4.0,-999.0,89,-99.99,,,-99.99,0.000000,,2013-09-02 04:44:00,
2013-09-02 00:54:00,53.0,50.0,-100.00,SSE,157,4.0,-999.0,89,-99.99,,,-99.99,0.000000,,2013-09-02 04:54:00,
2013-09-02 01:00:00,53.0,50.0,-100.00,South,180,3.0,-999.0,89,-99.99,,,-99.99,0.000000,,2013-09-02 05:00:00,
2013-09-02 01:44:00,53.0,50.0,-100.00,South,180,3.0,-999.0,89,-99.99,,,-99.99,0.000000,,2013-09-02 05:44:00,
2013-09-02 01:52:00,53.0,50.0,-100.00,South,180,3.0,-999.0,89,-99.99,,,-99.99,0.000000,,2013-09-02 05:52:00,
2013-09-02 02:00:00,52.0,48.0,-100.00,South,180,2.0,-999.0,86,-99.99,,,-99.99,0.000000,,2013-09-02 06:00:00,
2013-09-02 02:43:00,52.0,48.0,-100.00,South,180,2.0,-999.0,86,-99.99,,,-99.99,0.000000,,2013-09-02 06:43:00,
2013-09-02 02:52:00,52.0,48.0,-100.00,South,180,2.0,-999.0,86,-99.99,,,-99.99,0.000000,,2013-09-02 06:52:00,
2013-09-02 03:00:00,52.0,47.0,-100.00,WSW,247,3.0,-999.0,83,-99.99,,,-99.99,0.000000,,2013-09-02 07:00:00,
2013-09-02 03:42:00,52.0,47.0,-100.00,WSW,247,3.0,-999.0,83,-99.99,,,-99.99,0.000000,,2013-09-02 07:42:00,
2013-09-02 03:52:00,52.0,47.0,-100.00,WSW,247,3.0,-999.0,83,-99.99,,,-99.99,0.000000,,2013-09-02 07:52:00,
2013-09-02 07:00:00,50.0,48.0,-100.00,SW,225,4.0,-999.0,92,0.01,,,-99.99,0.000000,,2013-09-02 11:00:00,
2013-09-02 07:42:00,50.0,48.0,-100.00,SW,225,4.0,-999.0,92,0.01,,,-99.99,0.000000,,2013-09-02 11:42:00,
2013-09-02 07:52:00,50.0,48.0,-100.00,SW,225,4.0,-999.0,92,0.01,,,-99.99,0.000000,,2013-09-02 11:52:00,
2013-09-02 08:00:00,50.0,49.0,-100.00,South,180,2.0,-999.0,93,-99.99,,,-99.99,3.480000,,2013-09-02 12:00:00,
2013-09-02 08:43:00,50.0,49.0,-100.00,South,180,2.0,-999.0,93,-99.99,,,-99.99,3.480000,,2013-09-02 12:43:00,
2013-09-02 08:52:00,50.0,49.0,-100.00,South,180,2.0,-999.0,93,-99.99,,,-99.99,3.480000,,2013-09-02 12:52:00,
2013-09-02 09:00:00,51.0,49.0,-100.00,South,180,3.0,-999.0,93,0.01,,,-99.99,24.360001,,2013-09-02 13:00:00,
2013-09-02 09:42:00,51.0,49.0,-100.00,South,180,3.0,-999.0,93,0.01,,,-99.99,24.360001,,2013-09-02 13:42:00,
2013-09-02 09:52:00,51.0,49.0,-100.00,South,180,3.0,-999.0,93,0.01,,,-99.99,24.360001,,2013-09-02 13:52:00,
2013-09-02 10:00:00,51.0,49.0,-100.00,SSW,202,4.0,-999.0,91,-99.99,,,-99.99,56.840000,,2013-09-02 14:00:00,
2013-09-02 10:43:00,51.0,49.0,-100.00,SSW,202,4.0,-999.0,91,-99.99,,,-99.99,56.840000,,2013-09-02 14:43:00,
2013-09-02 10:52:00,51.0,49.0,-100.00,SSW,202,4.0,-999.0,91,-99.99,,,-99.99,56.840000,,2013-09-02 14:52:00,
2013-09-02 11:00:00,52.0,49.0,-100.00,SSE,157,4.0,-999.0,91,-99.99,,,-99.99,83.519997,,2013-09-02 15:00:00,
2013-09-02 11:45:00,52.0,49.0,-100.00,SSE,157,4.0,-999.0,91,-99.99,,,-99.99,83.519997,,2013-09-02 15:45:00,
2013-09-02 11:55:00,52.0,49.0,-100.00,SSE,157,4.0,-999.0,91,-99.99,,,-99.99,83.519997,,2013-09-02 15:55:00,
2013-09-02 13:00:00,54.0,49.0,-100.00,West,270,5.0,-999.0,85,-99.99,,,-99.99,157.759995,,2013-09-02 17:00:00,
2013-09-02 13:45:00,54.0,49.0,-100.00,West,270,5.0,-999.0,85,-99.99,,,-99.99,157.759995,,2013-09-02 17:45:00,
2013-09-02 13:52:00,54.0,49.0,-100.00,West,270,5.0,-999.0,85,-99.99,,,-99.99,157.759995,,2013-09-02 17:52:00,
2013-09-02 14:00:00,54.0,49.0,-100.00,SW,225,4.0,-999.0,83,-99.99,,,-99.99,192.559998,,2013-09-02 18:00:00,
2013-09-02 14:42:00,54.0,49.0,-100.00,SW,225,4.0,-999.0,83,-99.99,,,-99.99,192.559998,,2013-09-02 18:42:00,
2013-09-02 14:52:00,54.0,49.0,-100.00,SW,225,4.0,-999.0,83,-99.99,,,-99.99,192.559998,,2013-09-02 18:52:00,
2013-09-02 15:00:00,55.0,49.0,-100.00,SSW,202,4.0,-999.0,80,-99.99,,,-99.99,190.240005,,2013-09-02 19:00:00,
2013-09-02 15:42:00,55.0,49.0,-100.00,SSW,202,4.0,-999.0,80,-99.99,,,-99.99,190.240005,,2013-09-02 19:42:00,
2013-09-02 15:52:00,55.0,49.0,-100.00,SSW,202,4.0,-999.0,80,-99.99,,,-99.99,190.240005,,2013-09-02 19:52:00,
2013-09-02 16:00:00,56.0,49.0,-100.00,WSW,247,5.0,-999.0,75,-99.99,,,-99.99,225.039993,,2013-09-02 20:00:00,
2013-09-02 16:42:00,56.0,49.0,-100.00,WSW,247,5.0,-999.0,75,-99.99,,,-99.99,225.039993,,2013-09-02 20:42:00,
2013-09-02 16:52:00,56.0,49.0,-100.00,WSW,247,5.0,-999.0,75,-99.99,,,-99.99,225.039993,,2013-09-02 20:52:00,
2013-09-02 17:00:00,58.0,49.0,-100.00,SW,225,6.0,-999.0,70,-99.99,,,-99.99,322.480011,,2013-09-02 21:00:00,
2013-09-02 17:44:00,58.0,49.0,-100.00,SW,225,6.0,-999.0,70,-99.99,,,-99.99,322.480011,,2013-09-02 21:44:00,
2013-09-02 17:55:00,58.0,49.0,-100.00,SW,225,6.0,-999.0,70,-99.99,,,-99.99,322.480011,,2013-09-02 21:55:00,
2013-09-02 18:00:00,59.0,49.0,-100.00,SW,225,6.0,-999.0,68,-99.99,,,-99.99,308.559998,,2013-09-02 22:00:00,
2013-09-02 18:44:00,59.0,49.0,-100.00,SW,225,6.0,-999.0,68,-99.99,,,-99.99,308.559998,,2013-09-02 22:44:00,
2013-09-02 18:54:00,59.0,49.0,-100.00,SW,225,6.0,-999.0,68,-99.99,,,-99.99,308.559998,,2013-09-02 22:54:00,
2013-09-02 19:00:00,60.0,49.0,-100.00,SW,225,5.0,-999.0,66,-99.99,,,-99.99,267.959991,,2013-09-02 23:00:00,
2013-09-02 19:42:00,60.0,49.0,-100.00,SW,225,5.0,-999.0,66,-99.99,,,-99.99,267.959991,,2013-09-02 23:42:00,
2013-09-02 19:53:00,60.0,49.0,-100.00,SW,225,5.0,-999.0,66,-99.99,,,-99.99,267.959991,,2013-09-02 23:53:00,
2013-09-02 20:00:00,58.0,49.0,-100.00,WSW,247,4.0,-999.0,70,-99.99,,,-99.99,100.919998,,2013-09-03 00:00:00,
2013-09-02 20:42:00,58.0,49.0,-100.00,WSW,247,4.0,-999.0,70,-99.99,,,-99.99,100.919998,,2013-09-03 00:42:00,
2013-09-02 20:52:00,58.0,49.0,-100.00,WSW,247,4.0,-999.0,70,-99.99,,,-99.99,100.919998,,2013-09-03 00:52:00,
2013-09-02 21:00:00,56.0,48.0,-100.00,WSW,247,3.0,-999.0,76,-99.99,,,-99.99,5.800000,,2013-09-03 01:00:00,
2013-09-02 21:42:00,56.0,48.0,-100.00,WSW,247,3.0,-999.0,76,-99.99,,,-99.99,5.800000,,2013-09-03 01:42:00,
2013-09-02 21:52:00,56.0,48.0,-100.00,WSW,247,3.0,-999.0,76,-99.99,,,-99.99,5.800000,,2013-09-03 01:52:00,
2013-09-02 22:00:00,56.0,49.0,-100.00,West,270,2.0,-999.0,77,-99.99,,,-99.99,0.000000,,2013-09-03 02:00:00,
2013-09-02 22:42:00,56.0,49.0,-100.00,West,270,2.0,-999.0,77,-99.99,,,-99.99,0.000000,,2013-09-03 02:42:00,
2013-09-02 22:52:00,56.0,49.0,-100.00,West,270,2.0,-999.0,77,-99.99,,,-99.99,0.000000,,2013-09-03 02:52:00,